Chicopee, MA

10:43 AM EDT on May 25, 2017 (GMT -0400)
Westover Air Reserve Base / Metropolitan Airport

Weather History for KCEF - March, 2013

Change the Weather History Date:

Saturday, March 30, 2013

  Actual Average Record
Temperature  
Mean Temperature 41 °F -  
Max Temperature 56 °F 48 °F 80 °F (1998)
Min Temperature 26 °F 31 °F 18 °F (2008)
Degree Days  
Heating Degree Days 24    
Moisture  
Dew Point 23 °F    
Average Humidity 49    
Maximum Humidity 98    
Minimum Humidity 21    
Precipitation  
Precipitation 0.00 in - - ()
Sea Level Pressure  
Sea Level Pressure 30.08 in    
Wind  
Wind Speed 5 mph (NW)    
Max Wind Speed 15 mph    
Max Gust Speed 23 mph    
Visibility 10 miles    
Events      
Averages and records for this station are not official NWS values.
T = Trace of Precipitation, MM = Missing Value Source: NWS Daily Summary

Daily Weather History Graph

Daily Weather History Graph

Search for Another Location

Airport or City:

Trip Planner

Search our weather history database for the weather conditions in past years. The results will help you decide how hot, cold, wet, or windy it might be!

Date:

Astronomy

Mar. 30, 2013 Rise Set
Actual Time 6:35 AM EDT 7:13 PM EDT
Civil Twilight 6:07 AM EDT 7:42 PM EDT
Nautical Twilight 5:34 AM EDT 8:15 PM EDT
Astronomical Twilight 4:59 AM EDT 8:50 PM EDT
Moon 11:21 PM EDT (3/30) 8:24 AM EDT (3/30)
Length of Visible Light 13h 34m
Length of Day
12h 38m
Waning Gibbous, 86% of the Moon is Illuminated
Mar 30
Waning Gibbous
Apr 3
Last Quarter
Apr 10
New
Apr 18
First Quarter
Apr 25
Full

Hourly Weather History & Observations

Time (EDT) Temp. Windchill Dew Point Humidity Pressure Visibility Wind Dir Wind Speed Gust Speed Precip Events Conditions
12:55 AM 41.7 °F 39.8 °F 29.1 °F 61% 30.08 in 10.0 mi NW 3.5 mph - N/A   Overcast
1:55 AM 40.8 °F 36.9 °F 28.4 °F 61% 30.08 in 10.0 mi NNW 5.8 mph - N/A   Mostly Cloudy
2:55 AM 39.7 °F 34.9 °F 28.2 °F 63% 30.08 in 10.0 mi NNW 6.9 mph - N/A   Mostly Cloudy
3:55 AM 34.9 °F - 28.8 °F 78% 30.08 in 10.0 mi Calm Calm - N/A   Mostly Cloudy
4:55 AM 32.9 °F - 27.9 °F 82% 30.08 in 10.0 mi Calm Calm - N/A   Partly Cloudy
5:55 AM 29.8 °F - 27.5 °F 91% 30.09 in 10.0 mi Calm Calm - N/A   Mostly Cloudy
6:55 AM 26.1 °F - 25.5 °F 98% 30.10 in 10.0 mi Calm Calm - N/A   Clear
7:55 AM 34.2 °F - 31.3 °F 89% 30.11 in 10.0 mi Calm Calm - N/A   Clear
8:55 AM 41.2 °F - 29.7 °F 64% 30.12 in 10.0 mi Calm Calm - N/A   Clear
9:55 AM 46.9 °F - 28.4 °F 49% 30.12 in 10.0 mi WNW 6.9 mph - N/A   Clear
10:55 AM 50.2 °F - 22.8 °F 34% 30.10 in 10.0 mi Variable 4.6 mph - N/A   Clear
11:55 AM 51.6 °F - 19.6 °F 28% 30.08 in 10.0 mi Variable 6.9 mph - N/A   Scattered Clouds
12:55 PM 53.8 °F - 15.3 °F 22% 30.07 in 10.0 mi North 11.5 mph 18.4 mph N/A   Clear
1:55 PM 55.9 °F - 16.2 °F 21% 30.05 in 10.0 mi WNW 11.5 mph 20.7 mph N/A   Clear
2:55 PM 55.4 °F - 15.3 °F 21% 30.04 in 10.0 mi NW 9.2 mph 23.0 mph N/A   Clear
3:55 PM 55.0 °F - 15.4 °F 21% 30.03 in 10.0 mi North 11.5 mph 16.1 mph N/A   Clear
4:55 PM 56.1 °F - 15.8 °F 21% 30.03 in 10.0 mi WNW 15.0 mph - N/A   Scattered Clouds
5:55 PM 55.0 °F - 16.9 °F 22% 30.04 in 10.0 mi West 12.7 mph - N/A   Partly Cloudy
6:55 PM 51.8 °F - 18.5 °F 27% 30.06 in 10.0 mi NW 8.1 mph - N/A   Clear
7:55 PM 46.8 °F - 19.9 °F 35% 30.07 in 10.0 mi West 5.8 mph - N/A   Clear
8:55 PM 44.8 °F 41.0 °F 20.3 °F 38% 30.09 in 10.0 mi WNW 6.9 mph - N/A   Clear
9:55 PM 43.5 °F 39.4 °F 19.8 °F 39% 30.10 in 10.0 mi NW 6.9 mph - N/A   Clear
10:55 PM 41.0 °F 39.0 °F 19.9 °F 43% 30.10 in 10.0 mi NE 3.5 mph - N/A   Clear
11:55 PM 34.7 °F - 23.2 °F 63% 30.12 in 10.0 mi Calm Calm - N/A   Clear